QPF
0.00 0.00 0.00 0.00 0.00 0.00 0.00 0.00 0.00 0.00 0.00 0.00 0.00 0.00 0.00 0.00 0.00 0.00 0.00 0.00 0.00 0.00 0.00 0.00 0.00 0.00 0.00 0.00 0.00 0.00 0.00 0.00 0.00 0.00 0.00 0.00 0.00 0.00 0.00 0.00 0.00 0.00 0.00 0.00
0.00 0.00 0.00 0.00 0.00 0.00 0.00 0.00 0.00 0.00 0.00 0.00 0.00 0.00 0.00 0.00 0.00 0.00 0.00 0.00 0.00 0.00 0.00 0.00 0.00 0.00 0.00 0.00 0.00 0.00 0.00 0.00 0.00 0.00 0.00 0.00 0.00 0.00 0.00 0.00 0.00 0.00 0.00 0.00
0.01 0.00 0.00 0.00 0.00 0.00 0.00 0.00 0.00 0.00 0.00 0.00 0.00 0.00 0.00 0.00 0.00 0.00 0.00 0.00 0.00 0.00 0.00 0.00 0.00 0.00 0.00 0.00 0.00 0.00 0.00 0.00 0.00 0.00 0.00 0.00 0.00 0.00 0.00 0.00 0.00 0.00 0.00 0.00
0.00 0.00 0.00 0.00 0.00 0.00 0.00 0.00 0.00 0.00 0.00 0.00 0.00 0.00 0.00 0.00 0.00 0.00 0.00 0.00 0.00 0.00 0.00 0.00 0.00 0.00 0.00 0.00 0.00 0.00 0.00 0.00 0.00 0.00 0.00 0.00 0.00 0.00 0.00 0.00 0.00 0.00 0.00 0.00
0.00 0.00 0.00 0.00 0.00 0.00 0.00 0.00 0.00 0.00 0.00 0.00 0.00 0.00 0.00 0.00 0.00 0.00 0.00 0.00 0.00 0.00 0.00 0.00 0.00 0.00 0.00 0.00 0.00 0.00 0.00 0.00 0.00 0.00 0.00 0.00 0.00 0.00 0.00 0.00 0.00 0.00 0.00 0.00
0.00 0.00 0.00 0.00 0.00 0.00 0.00 0.00 0.00 0.00 0.00 0.00 0.00 0.00 0.00 0.00 0.00 0.00 0.00 0.00 0.00 0.00 0.00 0.00 0.00 0.00 0.00 0.00 0.00 0.00 0.00 0.00 0.00 0.00 0.00 0.00 0.00 0.00 0.00 0.00 0.00 0.00 0.00 0.00
0.00 0.00 0.00 0.00 0.00 0.00 0.00 0.00 0.00 0.00 0.00 0.00 0.00 0.00 0.00 0.00 0.00 0.00 0.00 0.00 0.00 0.00 0.00 0.00 0.00 0.00 0.00 0.00 0.00 0.00 0.00 0.00 0.00 0.00 0.00 0.00 0.00 0.00 0.00 0.00 0.00 0.00 0.00 0.00
0.00 0.01 0.00 0.00 0.00 0.00 0.00 0.00 0.00 0.00 0.00 0.00 0.00 0.00 0.00 0.00 0.00 0.00 0.00 0.00 0.00 0.00 0.00 0.00 0.00 0.00 0.00 0.00 0.00 0.00 0.00 0.00 0.00 0.00 0.00 0.00 0.00 0.00 0.00 0.00 0.00 0.00 0.00 0.00
0.00 0.00 0.00 0.00 0.00 0.00 0.00 0.00 0.00 0.00 0.00 0.00 0.00 0.00 0.00 0.00 0.00 0.00 0.00 0.00 0.00 0.00 0.00 0.00 0.00 0.00 0.00 0.00 0.00 0.00 0.00 0.00 0.00 0.00 0.00 0.00 0.00 0.00 0.00 0.00 0.00 0.00 0.00 0.00
0.00 0.00 0.00 0.00 0.00 0.00 0.00 0.00 0.00 0.00 0.00 0.00 0.00 0.00 0.00 0.00 0.00 0.00 0.00 0.00 0.00 0.00 0.00 0.00 0.00 0.00 0.00 0.00 0.00 0.00 0.00 0.00 0.00 0.00 0.00 0.00 0.00 0.00 0.00 0.00 0.00 0.00 0.00 0.00
0.00 0.00 0.00 0.00 0.00 0.00 0.00 0.00 0.00 0.00 0.00 0.00 0.00 0.00 0.00 0.00 0.00 0.00 0.00 0.00 0.00 0.00 0.00 0.00 0.00 0.00 0.00 0.00 0.00 0.00 0.00 0.00 0.00 0.00 0.00 0.00 0.00 0.00 0.00 0.00 0.00 0.00 0.00 0.00
0.00 0.00 0.00 0.00 0.00 0.00 0.00 0.00 0.00 0.00 0.00 0.00 0.00 0.00 0.00 0.00 0.00 0.00 0.00 0.00 0.00 0.00 0.00 0.00 0.00 0.00 0.00 0.00 0.00 0.00 0.00 0.00 0.00 0.00 0.00 0.00 0.00 0.00 0.00 0.00 0.00 0.00 0.00 0.00
0.00 0.00 0.00 0.00 0.00 0.00 0.00 0.00 0.00 0.00 0.00 0.00 0.00 0.00 0.00 0.00 0.00 0.00 0.00 0.00 0.00 0.00 0.00 0.00 0.00 0.00 0.00 0.00 0.00 0.00 0.00 0.00 0.00 0.00 0.00 0.00 0.00 0.00 0.00 0.00 0.00 0.00 0.00 0.00
0.00 0.00 0.00 0.00 0.00 0.00 0.00 0.00 0.00 0.00 0.00 0.00 0.00 0.00 0.00 0.00 0.00 0.00 0.00 0.00 0.00 0.00 0.00 0.00 0.00 0.00 0.00 0.00 0.00 0.00 0.00 0.00 0.00 0.00 0.00 0.00 0.00 0.00 0.00 0.00 0.00 0.00 0.00 0.00
0.00 0.00 0.00 0.00 0.00 0.00 0.00 0.00 0.00 0.00 0.00 0.00 0.00 0.00 0.00 0.00 0.00 0.00 0.00 0.00 0.00 0.00 0.00 0.00 0.00 0.00 0.00 0.00 0.00 0.01 0.01 0.01 0.01 0.01 0.00 0.00 0.00 0.00 0.00 0.00 0.00 0.00 0.00 0.00
0.00 0.00 0.00 0.00 0.00 0.00 0.00 0.00 0.00 0.00 0.00 0.00 0.00 0.00 0.00 0.00 0.00 0.00 0.00 0.00 0.00 0.00 0.00 0.00 0.00 0.00 0.00 0.00 0.01 0.01 0.01 0.01 0.01 0.00 0.00 0.00 0.00 0.00 0.00 0.00 0.00 0.00 0.00 0.00
0.00 0.00 0.00 0.00 0.00 0.00 0.00 0.00 0.00 0.00 0.00 0.00 0.00 0.00 0.00 0.00 0.00 0.00 0.00 0.00 0.00 0.00 0.00 0.00 0.00 0.00 0.00 0.00 0.01 0.01 0.02 0.01 0.01 0.00 0.00 0.00 0.00 0.00 0.00 0.00 0.00 0.00 0.00 0.00
0.00 0.00 0.00 0.00 0.00 0.00 0.00 0.00 0.00 0.00 0.00 0.00 0.00 0.00 0.00 0.00 0.00 0.00 0.00 0.00 0.00 0.00 0.00 0.00 0.00 0.00 0.00 0.00 0.00 0.00 0.00 0.00 0.00 0.00 0.00 0.00 0.00 0.00 0.00 0.00 0.00 0.00 0.00 0.00
0.00 0.00 0.00 0.00 0.00 0.00 0.00 0.00 0.00 0.00 0.00 0.00 0.00 0.00 0.00 0.00 0.00 0.00 0.00 0.00 0.00 0.00 0.00 0.00 0.00 0.00 0.00 0.00 0.00 0.00 0.00 0.00 0.00 0.01 0.00 0.00 0.00 0.00 0.00 0.00 0.00 0.00 0.00 0.00
0.00 0.00 0.00 0.00 0.00 0.00 0.00 0.00 0.00 0.00 0.00 0.00 0.00 0.00 0.00 0.00 0.00 0.00 0.00 0.00 0.00 0.00 0.00 0.00 0.00 0.00 0.00 0.00 0.00 0.00 0.00 0.00 0.00 0.00 0.00 0.00 0.00 0.00 0.00 0.00 0.00 0.00 0.00 0.00
0.00 0.00 0.00 0.00 0.00 0.00 0.00 0.00 0.00 0.00 0.00 0.00 0.00 0.00 0.00 0.00 0.00 0.00 0.00 0.00 0.00 0.00 0.00 0.00 0.00 0.00 0.00 0.00 0.00 0.00 0.00 0.00 0.00 0.00 0.00 0.00 0.00 0.00 0.00 0.00 0.00 0.00 0.00 0.00
0.00 0.00 0.00 0.00 0.00 0.00 0.00 0.00 0.00 0.00 0.00 0.00 0.00 0.00 0.00 0.00 0.00 0.00 0.00 0.00 0.00 0.00 0.00 0.00 0.00 0.00 0.00 0.00 0.00 0.00 0.00 0.00 0.00 0.00 0.00 0.00 0.00 0.00 0.00 0.00 0.00 0.00 0.00 0.00
0.00 0.00 0.00 0.00 0.00 0.00 0.00 0.00 0.00 0.00 0.00 0.00 0.00 0.00 0.00 0.00 0.00 0.00 0.00 0.00 0.00 0.00 0.00 0.00 0.00 0.00 0.00 0.00 0.00 0.00 0.00 0.00 0.00 0.00 0.00 0.00 0.00 0.00 0.00 0.00 0.00 0.00 0.00 0.00
0.00 0.00 0.00 0.00 0.00 0.00 0.00 0.00 0.00 0.00 0.00 0.00 0.00 0.00 0.00 0.00 0.00 0.00 0.00 0.00 0.00 0.00 0.00 0.00 0.00 0.00 0.00 0.00 0.00 0.00 0.00 0.00 0.00 0.00 0.00 0.00 0.00 0.00 0.00 0.00 0.00 0.00 0.00 0.00
0.00 0.00 0.00 0.00 0.00 0.00 0.00 0.00 0.01 0.00 0.00 0.00 0.00 0.00 0.00 0.00 0.00 0.00 0.00 0.00 0.00 0.00 0.00 0.00 0.00 0.00 0.00 0.00 0.00 0.00 0.00 0.00 0.00 0.00 0.00 0.00 0.00 0.00 0.00 0.00 0.00 0.00 0.00 0.00
0.00 0.00 0.00 0.00 0.00 0.00 0.00 0.00 0.00 0.00 0.00 0.00 0.00 0.00 0.00 0.00 0.00 0.00 0.00 0.00 0.00 0.00 0.00 0.00 0.00 0.00 0.00 0.00 0.00 0.00 0.00 0.00 0.00 0.00 0.00 0.00 0.00 0.00 0.00 0.00 0.00 0.00 0.00 0.00
0.00 0.00 0.00 0.00 0.00 0.00 0.00 0.00 0.01 0.01 0.00 0.00 0.00 0.00 0.00 0.00 0.00 0.00 0.00 0.00 0.00 0.00 0.00 0.00 0.00 0.00 0.00 0.00 0.00 0.00 0.00 0.00 0.00 0.00 0.00 0.00 0.00 0.00 0.00 0.00 0.00 0.00 0.00 0.00
MSLP
1010.85 1010.87 1010.18 1009.95 1009.57 1009.70 1009.86 1009.90 1009.83 1009.81 1009.14 1008.75 1008.99 1009.34 1009.71 1010.33 1010.95 1011.11 1011.60 1013.19 1014.43 1015.84 1017.28 1018.46 1019.59 1020.69 1021.50 1022.82 1023.57 1024.36 1024.84 1025.61 1026.41 1027.06 1027.39 1027.80 1028.29 1028.68 1029.09 1029.47 1029.50 1029.62 1029.70 1029.77
1012.17 1011.47 1011.21 1010.80 1010.46 1010.40 1010.15 1009.92 1009.74 1009.58 1009.27 1009.35 1009.38 1010.02 1010.46 1010.82 1011.10 1011.40 1011.58 1012.41 1013.82 1015.10 1016.50 1017.81 1019.34 1020.46 1021.55 1022.28 1023.68 1023.97 1024.67 1025.15 1025.92 1026.67 1027.15 1027.68 1028.11 1028.44 1028.82 1029.15 1029.25 1029.43 1029.47 1029.51
1012.00 1012.04 1011.83 1011.28 1010.46 1010.19 1009.86 1009.71 1009.82 1009.55 1009.47 1009.72 1010.15 1010.33 1010.49 1010.57 1010.84 1011.19 1011.72 1012.22 1013.16 1014.38 1015.81 1017.31 1018.83 1020.28 1020.98 1022.23 1022.94 1023.71 1024.23 1024.76 1025.50 1026.23 1026.81 1027.36 1027.83 1028.21 1028.55 1028.71 1028.86 1029.06 1029.14 1029.21
1012.65 1012.58 1012.03 1010.52 1010.54 1010.19 1010.03 1009.66 1009.45 1010.02 1010.29 1010.46 1010.89 1011.16 1011.17 1011.18 1011.24 1011.39 1011.48 1012.04 1012.73 1013.98 1015.32 1016.57 1018.00 1019.50 1021.02 1021.51 1022.40 1023.33 1023.83 1024.35 1025.07 1025.85 1026.39 1026.94 1027.44 1027.83 1028.12 1028.37 1028.51 1028.64 1028.77 1028.95
1013.14 1012.49 1011.40 1010.58 1010.55 1010.60 1010.40 1009.87 1009.87 1010.32 1010.84 1011.17 1011.34 1011.45 1010.96 1011.70 1011.93 1011.89 1011.78 1011.70 1012.30 1013.39 1014.84 1016.13 1017.42 1019.34 1020.29 1021.23 1021.93 1022.79 1023.30 1023.92 1024.61 1025.38 1025.99 1026.50 1027.04 1027.41 1027.65 1027.90 1028.18 1028.28 1028.45 1028.71
1013.80 1012.73 1011.35 1010.17 1010.50 1010.68 1010.85 1010.10 1009.68 1010.74 1011.34 1011.57 1011.63 1011.42 1010.95 1011.98 1012.43 1012.65 1012.61 1012.32 1012.66 1013.43 1014.72 1015.99 1017.49 1018.82 1019.78 1020.39 1021.21 1022.01 1022.81 1023.52 1024.26 1025.01 1025.58 1026.04 1026.51 1026.97 1027.44 1027.79 1027.97 1028.09 1028.27 1028.46
1013.32 1012.74 1011.64 1010.50 1010.98 1011.34 1011.14 1010.61 1010.70 1010.88 1011.21 1011.61 1011.89 1011.92 1012.02 1012.35 1012.53 1012.75 1012.85 1012.91 1013.28 1013.88 1014.63 1015.67 1017.09 1018.15 1018.88 1019.58 1020.27 1021.24 1022.33 1023.17 1023.87 1024.60 1025.27 1025.73 1026.19 1026.77 1027.20 1027.42 1027.63 1027.82 1027.97 1028.10
1012.81 1012.44 1011.63 1010.48 1010.83 1011.29 1010.48 1010.78 1011.02 1011.27 1011.35 1011.62 1011.92 1011.97 1011.97 1012.11 1012.31 1012.56 1012.74 1012.85 1013.29 1013.64 1014.28 1015.37 1016.25 1017.25 1018.02 1018.62 1019.53 1020.53 1021.52 1022.57 1023.34 1024.06 1024.73 1025.30 1026.02 1026.44 1026.95 1027.22 1027.40 1027.55 1027.61 1027.71
1011.31 1010.61 1010.55 1010.05 1010.27 1010.52 1010.57 1010.76 1010.92 1011.17 1011.26 1011.50 1011.64 1011.68 1011.66 1011.57 1011.68 1011.92 1012.17 1012.33 1012.77 1013.11 1013.87 1014.77 1015.55 1016.33 1016.98 1017.59 1018.63 1019.78 1020.87 1021.84 1022.82 1023.70 1024.29 1025.04 1025.59 1026.01 1026.37 1026.66 1026.95 1027.19 1027.40 1027.50
1010.65 1010.21 1010.43 1010.52 1010.41 1010.45 1010.73 1011.00 1011.10 1011.07 1011.11 1011.23 1011.13 1011.15 1011.33 1011.24 1011.15 1011.21 1011.42 1011.61 1011.89 1012.73 1013.15 1013.90 1014.71 1015.45 1016.21 1016.98 1017.88 1018.92 1020.03 1021.10 1022.12 1023.04 1023.96 1024.56 1025.14 1025.56 1025.94 1026.45 1026.80 1027.03 1027.23 1027.32
1010.29 1010.21 1010.25 1010.52 1010.46 1010.49 1010.57 1010.66 1010.73 1010.85 1010.84 1010.75 1010.88 1010.77 1010.82 1010.76 1010.60 1010.54 1010.62 1010.87 1011.26 1011.90 1012.60 1013.10 1013.98 1014.94 1015.83 1016.43 1017.21 1018.24 1019.53 1020.74 1021.49 1021.97 1023.46 1024.05 1024.41 1025.01 1025.72 1026.20 1026.76 1026.93 1027.18 1027.40
1010.06 1010.33 1010.27 1010.24 1010.23 1010.22 1010.26 1010.31 1010.53 1010.50 1010.46 1010.46 1010.42 1010.40 1010.27 1010.31 1010.16 1010.01 1010.12 1010.37 1010.79 1011.41 1012.14 1012.78 1013.30 1014.36 1015.23 1016.21 1016.84 1017.99 1019.13 1019.62 1020.58 1021.74 1022.05 1023.53 1023.97 1024.71 1025.79 1026.55 1027.15 1027.51 1027.88 1028.06
1009.85 1010.15 1010.25 1010.33 1010.42 1010.38 1010.43 1010.43 1010.32 1010.25 1010.21 1010.23 1010.26 1010.28 1010.08 1009.90 1010.14 1010.08 1010.36 1010.31 1010.43 1011.05 1011.66 1012.49 1012.99 1013.59 1014.77 1015.78 1016.81 1017.73 1018.38 1019.26 1019.97 1021.33 1021.57 1022.64 1023.55 1024.05 1024.95 1026.22 1026.77 1027.27 1027.49 1027.71
1009.81 1010.37 1010.39 1010.38 1010.34 1010.52 1010.42 1010.30 1010.11 1009.95 1010.16 1010.24 1010.42 1010.34 1010.26 1010.22 1010.35 1010.20 1010.30 1010.60 1010.79 1011.02 1011.43 1012.08 1012.66 1013.18 1014.19 1015.43 1016.49 1017.69 1018.01 1019.12 1019.61 1021.23 1021.31 1022.04 1023.26 1023.63 1024.24 1024.89 1025.55 1026.05 1026.60 1026.96
1009.99 1010.28 1010.37 1010.35 1010.42 1010.62 1010.63 1010.34 1010.11 1010.01 1010.04 1010.13 1010.31 1010.41 1010.50 1010.57 1010.58 1010.51 1010.48 1010.72 1011.00 1011.30 1011.57 1011.92 1012.28 1012.76 1013.93 1015.20 1016.15 1017.26 1018.11 1019.09 1019.72 1020.84 1021.27 1021.70 1022.79 1023.25 1023.75 1024.33 1024.81 1025.00 1025.16 1026.02
1009.46 1009.99 1010.26 1010.42 1010.52 1010.60 1010.64 1010.69 1010.56 1010.51 1010.48 1010.60 1011.00 1011.28 1011.28 1011.09 1011.01 1010.77 1010.84 1011.06 1011.33 1011.59 1011.75 1012.05 1012.20 1012.61 1013.78 1015.16 1016.11 1017.16 1018.24 1019.20 1019.84 1020.53 1021.22 1021.78 1022.28 1022.71 1023.28 1023.74 1024.09 1024.28 1024.49 1024.76
1009.83 1010.07 1010.47 1010.71 1010.89 1011.10 1011.16 1011.16 1011.06 1011.04 1011.33 1011.49 1011.66 1011.93 1011.82 1011.61 1011.40 1011.18 1010.94 1010.88 1010.96 1011.40 1012.02 1012.18 1012.35 1012.84 1013.66 1014.63 1015.87 1017.12 1018.30 1019.33 1019.91 1020.13 1020.65 1021.54 1021.84 1022.23 1022.68 1023.12 1023.37 1023.55 1023.85 1024.28
1009.96 1010.25 1010.59 1010.92 1011.15 1011.31 1011.45 1011.51 1011.50 1011.49 1011.46 1011.59 1011.80 1012.08 1012.24 1012.41 1012.12 1011.80 1011.60 1011.45 1011.43 1011.48 1011.98 1012.28 1012.57 1013.36 1014.04 1015.18 1016.31 1017.47 1017.99 1018.77 1019.60 1019.88 1020.30 1021.08 1021.30 1021.62 1022.12 1022.50 1022.76 1023.10 1023.39 1023.71
1009.91 1010.16 1010.58 1010.94 1011.16 1011.39 1011.65 1011.69 1011.69 1011.75 1011.80 1012.04 1012.32 1012.52 1012.73 1012.83 1013.06 1012.74 1012.41 1012.28 1011.99 1012.09 1012.56 1013.14 1013.40 1013.89 1014.62 1015.40 1016.15 1016.96 1017.67 1018.58 1019.37 1019.90 1020.41 1020.62 1021.09 1021.27 1021.64 1022.09 1022.45 1022.66 1022.87 1023.14
1009.88 1010.26 1010.74 1011.06 1011.28 1011.56 1011.74 1011.84 1011.90 1012.00 1012.03 1012.56 1013.19 1013.32 1013.53 1013.25 1013.32 1013.15 1012.95 1012.51 1011.97 1012.05 1012.27 1012.94 1013.62 1014.05 1014.63 1015.46 1016.07 1016.88 1017.51 1018.31 1018.94 1019.47 1020.01 1020.27 1020.65 1021.12 1021.45 1021.83 1022.02 1022.21 1022.54 1022.79
1009.77 1010.14 1010.48 1010.88 1011.13 1011.64 1012.04 1012.33 1012.35 1012.75 1013.22 1013.91 1013.88 1013.83 1013.58 1013.39 1013.19 1012.99 1012.97 1012.43 1011.61 1012.43 1012.41 1013.14 1013.49 1013.92 1014.77 1015.58 1016.12 1016.89 1017.44 1018.01 1018.62 1019.12 1019.59 1020.11 1020.41 1020.84 1021.12 1021.43 1021.68 1021.97 1022.21 1022.30
1009.46 1009.86 1010.59 1011.16 1011.54 1011.71 1011.96 1012.15 1012.12 1012.74 1013.29 1013.87 1014.11 1013.92 1013.59 1013.16 1012.82 1012.68 1012.72 1012.72 1012.22 1012.84 1012.81 1013.29 1013.54 1013.98 1014.62 1015.57 1016.05 1016.69 1017.55 1018.18 1018.52 1018.86 1019.38 1019.99 1020.40 1020.66 1020.89 1021.17 1021.34 1021.49 1021.70 1021.86
1009.22 1009.62 1010.14 1010.75 1011.28 1011.30 1011.32 1011.55 1012.47 1012.76 1012.92 1013.31 1013.66 1013.49 1013.40 1012.78 1012.49 1012.17 1011.96 1012.13 1012.25 1013.13 1013.07 1013.25 1013.58 1014.30 1015.05 1015.77 1016.01 1017.00 1017.63 1017.90 1018.27 1018.81 1019.25 1019.79 1020.08 1020.33 1020.58 1020.73 1020.86 1021.10 1021.26 1021.34
1009.18 1009.51 1009.90 1010.38 1010.61 1010.69 1010.78 1010.86 1011.41 1011.80 1012.55 1012.93 1013.20 1013.14 1013.03 1012.34 1012.40 1012.19 1012.28 1012.76 1012.95 1013.45 1013.28 1014.03 1014.44 1015.05 1015.63 1015.97 1016.52 1017.08 1017.53 1018.01 1018.49 1018.94 1019.34 1019.67 1019.90 1020.15 1020.37 1020.56 1020.72 1020.86 1020.96 1021.04
1009.17 1009.53 1009.82 1009.98 1010.05 1010.09 1010.14 1010.40 1010.93 1011.42 1011.64 1012.17 1012.13 1012.48 1012.55 1012.35 1012.39 1012.28 1012.62 1013.05 1013.60 1013.67 1014.25 1014.74 1015.15 1015.57 1015.90 1016.24 1016.69 1017.19 1017.65 1018.13 1018.55 1018.94 1019.19 1019.46 1019.69 1020.00 1020.19 1020.32 1020.41 1020.49 1020.54 1020.60
1008.89 1008.99 1009.10 1009.17 1009.32 1009.36 1009.30 1009.71 1010.73 1010.89 1011.48 1011.62 1011.70 1012.23 1012.39 1012.53 1012.67 1012.88 1013.30 1013.62 1013.91 1014.28 1014.77 1015.32 1015.51 1015.83 1016.06 1016.40 1016.88 1017.33 1017.71 1018.06 1018.56 1018.91 1019.09 1019.30 1019.53 1019.68 1019.83 1019.94 1020.03 1020.09 1020.11 1020.07
1008.68 1008.87 1009.13 1008.99 1009.19 1009.38 1009.67 1009.90 1010.33 1010.87 1011.23 1011.50 1011.71 1012.07 1012.40 1012.58 1012.78 1012.99 1013.67 1013.87 1014.03 1014.31 1014.79 1015.17 1015.58 1015.85 1016.15 1016.50 1016.90 1017.35 1017.78 1018.12 1018.50 1018.73 1019.01 1019.21 1019.31 1019.43 1019.53 1019.58 1019.63 1019.70 1019.70 1019.62
Thickness
5650 5653 5661 5661 5664 5666 5660 5666 5653 5662 5668 5679 5683 5679 5678 5676 5672 5671 5666 5653 5643 5631 5621 5611 5601 5591 5583 5568 5559 5549 5541 5532 5521 5511 5503 5494 5484 5474 5464 5455 5448 5441 5435 5428
5596 5645 5648 5644 5655 5655 5659 5662 5663 5665 5662 5680 5679 5675 5667 5665 5664 5660 5661 5655 5644 5634 5623 5612 5597 5586 5575 5567 5550 5545 5536 5528 5517 5505 5496 5485 5476 5467 5457 5447 5440 5432 5426 5420
5623 5636 5635 5625 5647 5652 5658 5663 5658 5648 5663 5669 5663 5662 5663 5664 5663 5659 5655 5653 5645 5635 5623 5609 5595 5580 5573 5557 5550 5539 5531 5522 5512 5500 5489 5478 5468 5459 5449 5441 5433 5424 5418 5411
5615 5622 5596 5646 5657 5656 5650 5657 5664 5657 5656 5657 5654 5654 5656 5658 5656 5654 5655 5649 5644 5633 5620 5609 5596 5580 5563 5557 5545 5533 5525 5516 5505 5493 5482 5471 5461 5451 5441 5432 5425 5417 5410 5402
5603 5613 5632 5644 5645 5640 5637 5643 5658 5650 5647 5647 5649 5648 5651 5650 5648 5647 5648 5648 5642 5632 5618 5606 5593 5573 5562 5550 5541 5528 5519 5509 5498 5486 5475 5464 5452 5442 5434 5425 5416 5409 5401 5393
5597 5600 5605 5638 5647 5649 5643 5626 5657 5644 5637 5637 5639 5626 5643 5641 5636 5633 5634 5636 5631 5624 5611 5598 5582 5568 5556 5548 5537 5525 5513 5502 5490 5478 5467 5456 5445 5435 5424 5414 5406 5399 5391 5383
5594 5592 5612 5639 5638 5634 5608 5622 5641 5641 5638 5632 5625 5630 5634 5632 5628 5626 5624 5623 5618 5611 5602 5591 5576 5564 5554 5544 5533 5521 5507 5494 5483 5470 5458 5448 5438 5426 5415 5407 5398 5391 5383 5375
5594 5585 5587 5637 5628 5611 5630 5634 5633 5632 5631 5627 5625 5626 5626 5625 5621 5618 5615 5613 5608 5602 5594 5584 5574 5561 5549 5540 5529 5516 5502 5487 5476 5464 5452 5440 5427 5418 5407 5397 5390 5381 5374 5366
5606 5609 5624 5634 5628 5629 5630 5625 5626 5624 5626 5623 5619 5619 5619 5619 5617 5613 5610 5607 5602 5596 5587 5577 5568 5557 5546 5537 5525 5510 5495 5481 5468 5455 5444 5431 5420 5411 5401 5393 5383 5374 5365 5357
5606 5617 5614 5616 5620 5620 5620 5615 5618 5620 5619 5617 5615 5616 5612 5611 5610 5608 5605 5602 5599 5588 5581 5571 5562 5551 5540 5530 5519 5505 5489 5475 5462 5450 5436 5425 5413 5404 5396 5385 5375 5366 5357 5350
5599 5608 5608 5608 5610 5611 5610 5611 5610 5611 5610 5609 5607 5606 5604 5602 5602 5602 5600 5596 5591 5582 5572 5564 5556 5542 5531 5523 5512 5499 5482 5467 5456 5447 5428 5417 5410 5400 5389 5378 5366 5359 5351 5341
5586 5596 5596 5598 5604 5606 5602 5601 5600 5600 5599 5600 5599 5597 5597 5594 5595 5595 5591 5587 5579 5571 5561 5553 5547 5535 5523 5511 5502 5488 5473 5465 5452 5437 5429 5410 5402 5393 5375 5364 5354 5345 5335 5326
5588 5593 5592 5593 5594 5594 5591 5592 5593 5591 5591 5588 5588 5587 5586 5586 5582 5581 5575 5571 5568 5558 5551 5542 5534 5527 5513 5501 5489 5476 5468 5458 5447 5427 5421 5407 5396 5386 5374 5356 5346 5336 5328 5319
5587 5580 5577 5580 5578 5581 5581 5582 5582 5583 5580 5577 5574 5574 5572 5570 5566 5564 5560 5554 5550 5545 5540 5531 5523 5515 5505 5492 5478 5465 5458 5445 5438 5417 5411 5402 5387 5377 5368 5359 5349 5339 5325 5314
5572 5571 5570 5571 5570 5566 5565 5567 5566 5566 5564 5563 5561 5558 5554 5550 5547 5545 5543 5539 5534 5528 5522 5517 5512 5506 5494 5480 5468 5455 5445 5435 5424 5410 5402 5394 5379 5368 5360 5351 5342 5334 5326 5312
5566 5561 5558 5556 5555 5554 5552 5549 5548 5547 5546 5543 5538 5533 5531 5531 5529 5528 5525 5520 5515 5510 5506 5498 5499 5493 5480 5467 5455 5444 5431 5420 5410 5401 5390 5380 5370 5362 5353 5344 5336 5328 5319 5310
5548 5545 5541 5537 5537 5534 5533 5532 5532 5530 5526 5522 5519 5515 5514 5513 5513 5511 5509 5507 5504 5499 5489 5487 5483 5476 5467 5456 5444 5432 5417 5406 5398 5393 5384 5370 5364 5355 5348 5339 5330 5322 5312 5302
5539 5536 5532 5528 5523 5522 5520 5519 5517 5515 5513 5511 5507 5502 5493 5483 5490 5491 5488 5486 5485 5483 5478 5472 5463 5454 5447 5437 5426 5414 5408 5397 5387 5382 5375 5365 5358 5351 5343 5333 5325 5315 5305 5296
5528 5525 5522 5519 5516 5513 5510 5507 5505 5503 5497 5494 5487 5477 5472 5467 5466 5464 5463 5458 5454 5455 5455 5446 5442 5437 5431 5422 5414 5406 5397 5386 5377 5370 5363 5358 5350 5344 5336 5326 5316 5308 5299 5289
5518 5515 5511 5507 5505 5502 5500 5497 5494 5489 5483 5473 5450 5446 5444 5442 5438 5437 5436 5442 5451 5450 5442 5435 5428 5425 5419 5410 5403 5395 5387 5378 5371 5365 5356 5352 5344 5335 5327 5317 5310 5302 5291 5281
5509 5506 5503 5499 5497 5490 5482 5474 5461 5453 5446 5436 5434 5434 5432 5430 5428 5427 5427 5437 5441 5428 5429 5422 5419 5415 5407 5397 5391 5385 5378 5372 5364 5358 5350 5342 5337 5328 5320 5311 5303 5293 5283 5274
5501 5498 5487 5473 5475 5471 5462 5460 5459 5439 5432 5424 5419 5419 5418 5421 5422 5420 5417 5420 5424 5413 5415 5411 5409 5403 5397 5388 5384 5377 5368 5360 5355 5350 5343 5334 5326 5319 5312 5303 5295 5286 5277 5268
5493 5489 5482 5468 5456 5464 5461 5453 5433 5428 5421 5415 5410 5411 5411 5418 5418 5420 5421 5415 5412 5403 5404 5402 5398 5391 5384 5378 5375 5365 5358 5353 5349 5342 5335 5327 5320 5312 5305 5298 5289 5280 5271 5262
5480 5476 5470 5462 5457 5452 5448 5446 5433 5426 5411 5406 5403 5401 5404 5412 5408 5408 5406 5399 5397 5393 5395 5387 5383 5377 5372 5368 5362 5356 5350 5345 5338 5332 5325 5318 5312 5304 5297 5289 5281 5272 5263 5254
5464 5458 5452 5447 5444 5440 5436 5430 5423 5417 5414 5409 5408 5403 5401 5402 5400 5400 5395 5391 5385 5384 5378 5373 5369 5365 5362 5358 5353 5347 5342 5335 5329 5323 5317 5311 5304 5296 5289 5281 5273 5265 5255 5246
5451 5447 5444 5440 5435 5431 5430 5425 5413 5414 5408 5406 5405 5397 5395 5393 5390 5387 5383 5379 5376 5372 5367 5361 5359 5356 5353 5349 5343 5338 5332 5327 5320 5314 5309 5303 5296 5289 5282 5274 5266 5257 5248 5239
5435 5422 5424 5424 5421 5418 5414 5412 5408 5405 5399 5398 5396 5391 5387 5385 5382 5380 5373 5371 5369 5365 5360 5356 5351 5348 5344 5340 5335 5329 5323 5318 5311 5307 5300 5295 5289 5282 5275 5266 5258 5249 5240 5231